Location: Arclight Observatory
(36.5667°N, 87.3333°W)
Time: 04:37:09
(UTC-05:00)

Hubble Space Telescope - Visible Passes

Search period start: 26 April 2018 00:00
Search period end: 06 May 2018 00:00
Orbit: 537 x 541 km, 28.5° (Epoch: 25 April)

Date Brightness Start Highest point End Pass type
(mag) Time Alt. Az. Time Alt. Az. Time Alt. Az.
26 Apr 2.7 20:16:28 10° SSW 20:18:48 15° SSE 20:20:37 12° SE visible
27 Apr 2.5 20:05:39 10° SSW 20:08:23 17° SSE 20:11:07 10° ESE visible
27 Apr 3.0 21:45:35 10° SW 21:46:35 15° SW 21:46:35 15° SW visible
28 Apr 2.6 21:35:11 10° WSW 21:37:04 21° SW 21:37:04 21° SW visible
29 Apr 2.2 21:24:48 10° WSW 21:27:28 24° SSW 21:27:28 24° SSW visible
30 Apr 2.1 21:14:27 10° WSW 21:17:47 25° S 21:17:47 25° S visible
01 May 2.1 21:04:08 10° WSW 21:07:29 24° S 21:08:03 23° S visible
02 May 2.3 20:53:52 10° WSW 20:57:05 22° S 20:58:17 19° SSE visible
03 May 2.5 20:43:38 10° WSW 20:46:41 20° SSW 20:48:30 15° SSE visible
04 May 2.7 20:33:27 10° WSW 20:36:16 18° SSW 20:38:43 11° SSE visible
05 May 2.9 20:23:23 10° SW 20:25:51 15° SSW 20:28:18 10° SSE visible
